Back to catalog

OPS 4682 DEB

AlivePO
NORAD 38388·DEBRIS·🇺🇸 United States

Launched Apr 3, 1965 from Vandenberg Space Force Base

Loading…

Next Passes (next 24 hours)

TLE

AgingSource: Space-Track

Epoch: Sep 9, 2026, 08:31 UTC

1 38388U 65027CR  26252.35518587  .00001690  00000-0  55233-2 0  9995
2 38388  90.2751  25.1431 0038111 130.0519 230.3956 13.00637437675005

Track OPS 4682 DEB in real time with AllMySat

Download on the App Store